This is the latest recevied weather packets stored in our database for station/object KE8GJZ-2. If no packets are shown the sender has not sent any weather packets the latest 10 day(s).
| Time | Temp. | Humidity | Pressure | Rain* | Wind** | Luminosity | Snow |
|---|---|---|---|---|---|---|---|
| 1777581321 | 9.44° C | 49% | 1015.4 hPa | 0 mm | - | 200 W/m² | - |
| 1777581016 | 9.44° C | 56% | 1015.3 hPa | 0 mm | - | 262 W/m² | - |
| 1777580715 | 9.44° C | 55% | 1015.3 hPa | 0 mm | - | 235 W/m² | - |
| 1777580412 | 9.44° C | 50% | 1015.5 hPa | 0 mm | - | 225 W/m² | - |
| 1777580108 | 10° C | 52% | 1015.4 hPa | 0 mm | - | 229 W/m² | - |
| 1777579804 | 9.44° C | 52% | 1015.5 hPa | 0 mm | - | 227 W/m² | - |
| 1777579503 | 10° C | 55% | 1015.4 hPa | 0 mm | - | 294 W/m² | - |
| 1777579197 | 10° C | 51% | 1015.5 hPa | 0 mm | - | 280 W/m² | - |
| 1777578893 | 10° C | 53% | 1015.7 hPa | 0 mm | - | 285 W/m² | - |
| 1777578589 | 10° C | 51% | 1015.4 hPa | 0 mm | - | 268 W/m² | - |
| 1777578289 | 10° C | 48% | 1015.5 hPa | 0 mm | - | 270 W/m² | - |
| 1777577985 | 10° C | 55% | 1015.5 hPa | 0 mm | - | 311 W/m² | - |
| 1777577680 | 10° C | 48% | 1015.4 hPa | 0 mm | - | 353 W/m² | - |
| 1777577378 | 10° C | 54% | 1015.6 hPa | 0 mm | - | 648 W/m² | - |
| 1777577074 | 10° C | 49% | 1015.7 hPa | 0 mm | - | 505 W/m² | - |
| 1777576771 | 10° C | 51% | 1015.5 hPa | 0 mm | - | 400 W/m² | - |
| 1777576470 | 10.56° C | 48% | 1015.6 hPa | 0 mm | - | 371 W/m² | - |
| 1777576167 | 10° C | 52% | 1015.6 hPa | 0 mm | - | 349 W/m² | - |
| 1777575867 | 10° C | 47% | 1015.7 hPa | 0 mm | - | 331 W/m² | - |
| 1777575564 | 10.56° C | 46% | 1015.6 hPa | 0 mm | - | 536 W/m² | - |
| 1777575260 | 10.56° C | 49% | 1015.4 hPa | 0 mm | - | 505 W/m² | - |
| 1777574956 | 10.56° C | 50% | 1015.7 hPa | 0 mm | - | 689 W/m² | - |
| 1777574652 | 10.56° C | 50% | 1015.7 hPa | 0 mm | - | 787 W/m² | - |
| 1777574350 | 10.56° C | 50% | 1015.5 hPa | 0 mm | - | 758 W/m² | - |
| 1777574044 | 10.56° C | 53% | 1015.4 hPa | 0 mm | - | 703 W/m² | - |
* Rain latest hour (hover to see other rain measurements)
** Current wind speed in m/s (hover to see current wind gust speed)